Regional Weather Roundup
Issued by NWS

Home | Current Version | Previous Version | Graphics & Text | Print | Product List | Glossary On
Versions: 1 2 3 4 5 6 7 8 9 10 11 12 13 14 15 16 17 18 19 20 21 22 23 24 25 26 27 28 29 30 31 32 33 34 35 36 37 38 39 40 41 42 43 44 45 46 47 48 49 50
000
ASUS43 KIND 281359
RWRIN

WEATHER ROUNDUP FOR INDIANA
NATIONAL WEATHER SERVICE INDIANAPOLIS IN
900 AM EST SAT FEB 28 2015

NOTE: "FAIR" INDICATES FEW OR NO CLOUDS BELOW 12,000 FEET WITH NO
SIGNIFICANT WEATHER AND/OR OBSTRUCTIONS TO VISIBILITY.

* - STATION DOES NOT REPORT WEATHER SUCH AS PRECIPITATION OR FOG.

+ - STATION NOT QUALITY CONTROLLED BY THE NATIONAL WEATHER SERVICE.
    USE DATA WITH CAUTION...ESPECIALLY DEWPOINT AND RELATIVE
    HUMIDITY OBSERVATIONS.

INZ001>003-010>013-019-020-281500-
NORTHWEST INDIANA

CITY           SKY/WX    TMP DP  RH WIND       PRES   REMARKS
GARY /AIRPORT/ MOSUNNY    3  -4  72 CALM      30.74R
KNOX *+          N/A     -4 -17  54 CALM      30.73S
MONTICELLO +   MOSUNNY    4  -2  76 CALM      30.72S
VALPARAISO     NOT AVBL

$$

LMZ046-743>745-281500-
SOUTHERN LAKE MICHIGAN

STATION/POSITION TIME  TEMP WIND        PRES
                       AIR  DIR/SP/G
                 (UTC) (F)  (DEG/KT/KT) (MB)
MICHIGAN CITY    1300    1  140/  5/  6   N/A

$$

INZ004-005-014>016-021>024-281500-
NORTH CENTRAL INDIANA

CITY           SKY/WX    TMP DP  RH WIND       PRES   REMARKS
ELKHART        SUNNY     -2  -9  71 CALM      30.75R
GOSHEN         MOSUNNY   -4  -6  91 CALM      30.73R
SOUTH BEND     MOSUNNY    0  -6  76 CALM      30.74R

$$

INZ006>009-017-018-025>027-281500-
NORTHEAST INDIANA

CITY           SKY/WX    TMP DP  RH WIND       PRES   REMARKS
ANGOLA *+      SUNNY     -6 -11  77 CALM      30.72R
FORT WAYNE     CLOUDY     7   3  84 CALM      30.75R

$$

INZ028-029-035-036-043>045-051>053-281500-
WEST CENTRAL INDIANA

CITY           SKY/WX    TMP DP  RH WIND       PRES   REMARKS
CRAWFORDSVL +  MOSUNNY   10  -2  60 E8        30.69S WCI  -3
GREENCASTLE +  CLOUDY    12   1  62 E6        30.70R WCI   3
LAFAYETTE      MOSUNNY    8   1  73 E7        30.72F WCI  -3
TERRE HAUTE    CLOUDY    14   3  61 E7        30.71R WCI   4

$$

INZ030>032-037>040-046>048-054>057-064-065-281500-
CENTRAL INDIANA

CITY           SKY/WX    TMP DP  RH WIND       PRES   REMARKS
CP ATTERBURY + CLOUDY    12   5  73 CALM      30.72S
COLUMBUS       PTSUNNY   10   3  72 CALM      30.72R
FRANKFORT +    SUNNY     11   4  73 E9        30.71S WCI  -1
GREENWOOD *+   CLOUDY    12  -2  52 E5        30.71R WCI   4
INDIANAPOLIS   CLOUDY    14   1  56 E9        30.70R WCI   2
-EAGLE CREEK   CLOUDY    13   3  64 E5        30.70S WCI   5
KOKOMO *+      SUNNY      9   3  78 E7        30.73R WCI  -3
MT COMFORT *+  SUNNY     12  -4  48 SE3       30.71S
SHELBYVILLE    CLOUDY    15   2  56 E12       30.70S WCI   2
ZIONSVILLE +   PTSUNNY   12   3  66 E3        30.70R

$$

INZ033-034-041-042-049-050-058-059-281500-
EAST CENTRAL INDIANA

CITY           SKY/WX    TMP DP  RH WIND       PRES   REMARKS
MUNCIE         PTSUNNY    7   1  76 E6        30.71R WCI  -3

$$

INZ060-061-067>069-081>083-085>088-281500-
SOUTHWEST INDIANA

CITY           SKY/WX    TMP DP  RH WIND       PRES   REMARKS
EVANSVILLE     CLOUDY    22   8  55 E7        30.69R WCI  13
HUNTINGBURG *+ MOSUNNY   19   7  58 E9        30.69R WCI   9

$$

INZ062-063-066-070>080-084-089>092-281500-
SOUTH CENTRAL AND SOUTHEAST INDIANA

CITY           SKY/WX    TMP DP  RH WIND       PRES   REMARKS
BLOOMINGTON    CLOUDY    15   3  59 SE7       30.69R WCI   5
SEYMOUR +      CLOUDY    18   3  53 E3        30.72R

$$




USA.gov is the U.S. government's official web portal to all federal, state and local government web resources and services.